Location: *
(17.3280°S, 114.7300°W)
Time: 12:33:00
(UTC+00:00)

Cosmos 2278 Rocket - Visible Passes

Search period start: 05 December 2020 00:00
Search period end: 15 December 2020 00:00
Orbit: 840 x 847 km, 71.0° (Epoch: 04 December)

Date Brightness Start Highest point End Pass type
(mag) Time Alt. Az. Time Alt. Az. Time Alt. Az.
05 Dec 4.9 10:29:55 10° SSE 10:33:25 17° ESE 10:36:54 10° ENE visible
05 Dec 2.6 12:12:13 10° SW 12:17:27 39° WNW 12:22:40 10° N visible
06 Dec 4.9 10:15:32 10° SSE 10:18:50 16° ESE 10:22:08 10° ENE visible
06 Dec 2.5 11:57:36 10° SW 12:02:53 41° WNW 12:08:10 10° N visible
07 Dec 4.9 10:01:10 10° SSE 10:04:15 15° ESE 10:07:19 10° E visible
07 Dec 2.5 11:43:00 10° SSW 11:48:21 44° WNW 11:53:39 10° N visible
08 Dec 4.9 09:46:51 10° SE 09:49:40 14° ESE 09:52:28 10° E visible
08 Dec 2.4 11:28:23 10° SSW 11:33:47 47° WNW 11:39:09 10° N visible
09 Dec 4.9 09:32:33 10° SE 09:35:05 13° ESE 09:37:37 10° E visible
09 Dec 2.3 11:13:47 10° SSW 11:19:13 49° WNW 11:20:44 39° NNW visible
10 Dec 4.9 09:18:18 10° SE 09:20:30 12° ESE 09:22:13 11° E visible
10 Dec 2.4 10:59:11 10° SSW 11:03:53 49° WSW 11:03:53 49° WSW visible
11 Dec 4.9 09:04:08 10° SE 09:05:55 11° ESE 09:06:06 11° ESE visible
11 Dec 3.2 10:44:35 10° SSW 10:47:49 33° SW 10:47:49 33° SW visible
12 Dec 5.0 08:50:05 10° SE 08:50:25 10° SE 08:50:25 10° SE visible
12 Dec 3.8 10:30:00 10° SSW 10:32:10 24° SSW 10:32:10 24° SSW visible
13 Dec 4.2 10:15:24 10° SSW 10:16:47 18° SSW 10:16:47 18° SSW visible
14 Dec 4.5 10:00:49 10° SSW 10:01:36 14° SSW 10:01:36 14° SSW visible
